W2SRH Weather Reports


time (UTC)temp
C
wind
direction
speed
KPH
gust
KPH
rain 1hr
cm
rain 24hr
cm
rain mn
cm
humidity
%
barometer
mb
20260504194904 22 274 8.0 17.7 0.00 0.00 0.00 27 1001.6
20260504193903 22 286 4.8 12.9 0.00 0.00 0.00 27 1001.7
20260504192909 22 249 3.2 9.7 0.00 0.00 0.00 27 1001.8
20260504191905 22 260 4.8 17.7 0.00 0.00 0.00 27 1001.9
20260504190905 22 249 6.4 14.5 0.00 0.00 0.00 27 1002.0
20260504185905 22 211 3.2 14.5 0.00 0.00 0.00 27 1002.0
20260504184904 22 211 3.2 14.5 0.00 0.00 0.00 27 1002.5
20260504183905 22 254 4.8 12.9 0.00 0.00 0.00 27 1002.4
20260504182905 21 274 4.8 17.7 0.00 0.00 0.00 27 1002.6
20260504181905 22 280 6.4 17.7 0.00 0.00 0.00 27 1002.8
20260504180904 22 194 1.6 8.0 0.00 0.00 0.00 28 1002.8
20260504175904 21 277 4.8 16.1 0.00 0.00 0.00 27 1003.0
20260504174906 21 244 8.0 20.9 0.00 0.00 0.00 27 1003.2
20260504173903 21 285 6.4 20.9 0.00 0.00 0.00 28 1003.2
20260504172906 21 231 4.8 14.5 0.00 0.00 0.00 29 1003.4
20260504171904 20 270 3.2 22.5 0.00 0.00 0.00 30 1003.5
20260504170907 20 254 3.2 17.7 0.00 0.00 0.00 31 1003.6
20260504150904 18 235 3.2 20.9 0.00 0.00 0.00 38 1005.0
20260504140904 16 171 1.6 14.5 0.00 0.00 0.00 49 1005.3
20260504081904 8 262 0.0 4.8 0.00 0.00 0.00 55 1005.8
20260504080904 8 0 0.0 1.6 0.00 0.00 0.00 52 1005.9
20260504080243 8 259 0.0 3.2 0.00 0.00 0.00 51 1006.0
20260504080230 7 0 0.0 4.8 0.00 0.00 0.00 52 1006.0
20260504045904 10 284 0.0 3.2 0.00 0.00 0.00 44 1005.7
20260504044907 10 295 1.6 4.8 0.00 0.00 0.00 43 1005.6
20260504043903 10 279 0.0 1.6 0.00 0.00 0.00 43 1005.6
20260504042905 10 256 0.0 4.8 0.00 0.00 0.00 42 1005.4
20260504041903 10 292 0.0 3.2 0.00 0.00 0.00 42 1005.3
20260504040903 11 269 0.0 4.8 0.00 0.00 0.00 41 1005.3
20260504035903 11 273 3.2 8.0 0.00 0.00 0.00 41 1005.1
20260504034903 11 265 1.6 6.4 0.00 0.00 0.00 41 1005.1
20260504033904 11 282 1.6 4.8 0.00 0.00 0.00 41 1005.1
20260504032905 11 271 1.6 6.4 0.00 0.00 0.00 41 1005.1
20260504031904 11 269 0.0 4.8 0.00 0.00 0.00 41 1004.9
20260504030904 11 290 1.6 3.2 0.00 0.00 0.00 40 1005.0
20260504025903 11 267 1.6 4.8 0.00 0.00 0.00 40 1005.0
20260504024904 11 264 1.6 6.4 0.00 0.00 0.00 40 1005.0
20260504023904 11 268 0.0 3.2 0.00 0.00 0.00 40 1004.9
20260504022904 11 261 1.6 6.4 0.00 0.00 0.00 39 1005.1
20260504021903 11 269 1.6 6.4 0.00 0.00 0.00 39 1005.0
20260504020905 11 257 1.6 6.4 0.00 0.00 0.00 39 1004.9
20260504015903 11 271 1.6 4.8 0.00 0.00 0.00 39 1005.1
20260504014903 11 263 0.0 3.2 0.00 0.00 0.00 38 1004.8
20260504013904 11 260 1.6 3.2 0.00 0.00 0.00 37 1004.8
20260504012904 11 278 0.0 4.8 0.00 0.00 0.00 37 1004.8
20260504011903 12 284 0.0 1.6 0.00 0.00 0.00 37 1004.6
20260504010903 12 275 1.6 3.2 0.00 0.00 0.00 35 1004.5
20260504005903 12 281 1.6 4.8 0.00 0.00 0.00 35 1004.3
20260504004904 12 277 0.0 4.8 0.00 0.00 0.00 34 1004.1
20260504003904 12 310 0.0 3.2 0.00 0.00 0.00 34 1004.0
20260504002905 13 279 1.6 3.2 0.00 0.00 0.00 33 1003.9
20260504001904 13 265 1.6 4.8 0.00 0.00 0.00 32 1003.8
20260504000904 13 279 0.0 3.2 0.00 0.00 0.00 31 1003.8
20260503235904 13 300 1.6 4.8 0.00 0.00 0.00 30 1003.7
20260503234904 14 265 1.6 6.4 0.00 0.00 0.00 30 1003.6
20260503233904 15 278 4.8 12.9 0.00 0.00 0.00 29 1003.6
20260503232903 15 268 4.8 16.1 0.00 0.00 0.00 27 1003.4
20260503231903 15 272 6.4 19.3 0.00 0.00 0.00 27 1003.4
20260503230903 15 292 8.0 22.5 0.00 0.00 0.00 26 1003.5
20260503225904 15 317 8.0 17.7 0.00 0.00 0.00 26 1003.2
20260503224903 16 296 11.3 20.9 0.00 0.00 0.00 25 1003.2
20260503223903 16 303 6.4 12.9 0.00 0.00 0.00 25 1003.2
20260503222903 16 297 6.4 19.3 0.00 0.00 0.00 25 1003.2
20260503221904 16 306 12.9 22.5 0.00 0.00 0.00 25 1003.1
20260503220903 16 306 12.9 24.1 0.00 0.00 0.00 25 1003.2
20260503215904 15 279 12.9 22.5 0.00 0.00 0.00 25 1003.3
20260503214903 15 306 8.0 16.1 0.00 0.00 0.00 25 1003.3
20260503213904 15 299 12.9 27.4 0.00 0.00 0.00 25 1003.1
20260503212906 15 270 9.7 20.9 0.00 0.00 0.00 25 1003.2
20260503211907 15 278 12.9 29.0 0.00 0.00 0.00 25 1003.2
20260503210906 16 335 9.7 20.9 0.00 0.00 0.00 25 1003.2
20260503205905 15 327 8.0 24.1 0.00 0.00 0.00 26 1003.3
20260503204905 15 302 16.1 29.0 0.00 0.00 0.00 26 1003.4
20260503203905 14 310 11.3 20.9 0.00 0.00 0.00 26 1003.5
20260503202905 15 322 9.7 22.5 0.00 0.00 0.00 26 1003.4
20260503201907 15 300 19.3 29.0 0.00 0.00 0.00 25 1003.5
20260503200906 15 317 8.0 22.5 0.00 0.00 0.00 26 1003.4
20260503195905 15 316 11.3 29.0 0.00 0.00 0.00 26 1003.5